Date,TemperatureHighF,TemperatureAvgF,TemperatureLowF,DewpointHighF,DewpointAvgF,DewpointLowF,HumidityHigh,HumidityAvg,HumidityLow,PressureMaxIn,PressureMinIn,WindSpeedMaxMPH,WindSpeedAvgMPH,GustSpeedMaxMPH,PrecipitationSumIn
2013-6-1,84,75,67,68,64,61,83,68,47,29.92,29.78,14,2,18,0.00
2013-6-2,82,70,60,70,65,59,98,85,57,29.79,29.63,23,1,23,0.54
2013-6-3,66,60,49,61,54,37,97,81,61,29.82,29.73,15,1,16,0.00
2013-6-4,64,52,43,48,42,36,87,71,50,30.09,29.82,15,2,22,0.00
2013-6-5,68,57,46,49,43,35,85,61,39,30.17,30.08,14,1,14,0.00
2013-6-6,66,57,50,53,45,35,96,66,50,30.14,30.04,12,1,13,0.15
2013-6-7,52,48,46,51,47,44,99,97,92,30.04,29.84,11,1,11,1.21
2013-6-8,62,55,48,59,54,47,99,96,85,30.01,29.71,14,2,14,0.26
2013-6-9,70,60,53,59,54,52,99,84,56,30.16,30.00,12,1,12,0.00
2013-6-10,65,59,55,58,54,44,99,84,62,30.17,29.92,9,0,9,0.43
2013-6-11,55,53,52,54,53,51,100,99,97,29.92,29.55,13,1,14,0.98
2013-6-12,62,54,50,56,52,49,99,92,73,29.83,29.55,22,3,23,0.06
2013-6-13,58,52,48,54,50,48,99,93,79,29.82,29.68,8,0,8,0.42
2013-6-14,68,59,48,57,52,48,99,78,55,29.82,29.66,14,2,17,0.01
2013-6-15,69,60,51,54,46,41,77,61,42,29.92,29.81,14,2,16,0.00
2013-6-16,68,59,53,58,52,43,98,78,60,29.91,29.67,15,1,15,0.06
2013-6-17,74,62,55,63,58,54,99,87,58,29.88,29.76,20,1,29,0.31
2013-6-18,59,55,51,58,54,46,98,95,79,29.94,29.84,18,0,19,0.08
2013-6-19,66,57,46,51,44,38,92,66,41,30.16,29.93,11,1,12,0.00
2013-6-20,72,61,50,51,45,35,81,58,28,30.23,30.15,11,1,12,0.00
2013-6-21,77,66,54,57,52,48,92,64,38,30.23,30.16,9,1,9,0.00
2013-6-22,78,68,60,66,60,50,90,76,60,30.18,30.06,13,1,13,0.01
2013-6-23,84,72,64,73,66,62,97,84,61,30.08,29.92,14,1,20,0.44
2013-6-24,81,69,64,72,66,62,98,89,69,29.97,29.88,16,1,16,0.10
2013-6-25,82,71,63,72,66,61,97,83,63,29.93,29.74,14,1,16,0.23